TimeCDT,TemperatureF,Dew PointF,Humidity,Sea Level PressureIn,VisibilityMPH,Wind Direction,Wind SpeedMPH,Gust SpeedMPH,PrecipitationIn,Events,Conditions,WindDirDegrees,DateUTC
12:16 AM,78.8,66.2,65,30.06,10.0,SE,9.2,-,N/A,,Mostly Cloudy,130,2013-08-21 05:16:00
12:51 AM,78.1,69.1,74,30.00,10.0,SE,8.1,-,N/A,,Scattered Clouds,140,2013-08-21 05:51:00
1:51 AM,75.9,70.0,82,30.01,10.0,SE,5.8,-,N/A,,Partly Cloudy,140,2013-08-21 06:51:00
2:04 AM,77.0,69.8,78,30.06,10.0,SE,8.1,-,N/A,,Mostly Cloudy,140,2013-08-21 07:04:00
2:51 AM,77.0,70.0,79,30.01,10.0,ESE,6.9,-,N/A,,Overcast,120,2013-08-21 07:51:00
3:51 AM,78.1,71.1,79,30.01,10.0,SSE,6.9,-,N/A,,Overcast,150,2013-08-21 08:51:00
4:51 AM,78.1,71.1,79,30.01,10.0,SE,4.6,-,N/A,,Overcast,130,2013-08-21 09:51:00
5:33 AM,78.8,71.6,78,30.06,10.0,East,5.8,-,N/A,,Overcast,100,2013-08-21 10:33:00
5:51 AM,78.1,72.0,81,30.01,10.0,ESE,4.6,-,N/A,,Overcast,120,2013-08-21 10:51:00
6:13 AM,78.8,71.6,78,30.06,10.0,ESE,6.9,-,N/A,,Mostly Cloudy,120,2013-08-21 11:13:00
6:27 AM,78.8,71.6,78,30.06,10.0,SE,6.9,-,N/A,,Mostly Cloudy,130,2013-08-21 11:27:00
6:51 AM,77.0,72.0,84,30.02,10.0,SE,4.6,-,N/A,,Mostly Cloudy,140,2013-08-21 11:51:00
7:21 AM,77.0,71.6,83,30.07,10.0,ESE,5.8,-,N/A,,Mostly Cloudy,110,2013-08-21 12:21:00
7:36 AM,77.0,71.6,83,30.08,10.0,ESE,4.6,-,N/A,,Partly Cloudy,110,2013-08-21 12:36:00
7:47 AM,77.0,71.6,83,30.08,10.0,East,3.5,-,N/A,,Mostly Cloudy,100,2013-08-21 12:47:00
7:51 AM,77.0,72.0,84,30.04,10.0,East,3.5,-,N/A,,Mostly Cloudy,100,2013-08-21 12:51:00
8:22 AM,78.8,71.6,78,30.09,10.0,ESE,4.6,-,N/A,,Overcast,120,2013-08-21 13:22:00
8:46 AM,80.6,71.6,74,30.10,10.0,SE,5.8,-,N/A,,Mostly Cloudy,140,2013-08-21 13:46:00
8:51 AM,80.1,72.0,76,30.05,10.0,ESE,5.8,-,N/A,,Mostly Cloudy,120,2013-08-21 13:51:00
9:22 AM,82.4,71.6,70,30.10,10.0,SSE,6.9,-,N/A,,Overcast,150,2013-08-21 14:22:00
9:51 AM,82.0,71.1,69,30.05,10.0,SSE,4.6,-,N/A,,Scattered Clouds,150,2013-08-21 14:51:00
10:51 AM,87.1,70.0,57,30.05,10.0,SSE,4.6,-,N/A,,Scattered Clouds,160,2013-08-21 15:51:00
11:51 AM,89.1,66.9,48,30.06,10.0,South,6.9,-,N/A,,Scattered Clouds,180,2013-08-21 16:51:00
12:51 PM,91.9,66.0,42,30.03,10.0,East,5.8,-,N/A,,Clear,90,2013-08-21 17:51:00
1:51 PM,93.9,64.0,37,30.01,10.0,Variable,5.8,-,N/A,,Mostly Cloudy,0,2013-08-21 18:51:00
2:51 PM,98.1,64.0,33,29.98,10.0,East,4.6,-,N/A,,Partly Cloudy,80,2013-08-21 19:51:00
3:51 PM,99.0,63.0,30,29.95,10.0,East,9.2,-,N/A,,Mostly Cloudy,80,2013-08-21 20:51:00
4:51 PM,100.0,62.1,29,29.92,10.0,SE,10.4,19.6,N/A,,Scattered Clouds,140,2013-08-21 21:51:00
5:51 PM,90.0,68.0,48,29.96,8.0,SE,31.1,42.6,N/A,,Mostly Cloudy,130,2013-08-21 22:51:00
6:24 PM,82.4,66.2,58,30.02,10.0,SE,20.7,28.8,N/A,Thunderstorm,Clear,140,2013-08-21 23:24:00
6:38 PM,82.4,66.2,58,30.01,10.0,SE,17.3,-,N/A,,Unknown,130,2013-08-21 23:38:00
6:51 PM,84.0,68.0,58,29.96,10.0,SE,20.7,26.5,N/A,,Unknown,130,2013-08-21 23:51:00
7:51 PM,81.0,68.0,65,29.99,10.0,SSE,9.2,-,N/A,,Clear,150,2013-08-22 00:51:00
8:51 PM,80.1,68.0,67,30.01,10.0,SSE,4.6,-,N/A,,Clear,160,2013-08-22 01:51:00
9:51 PM,79.0,68.0,69,30.03,10.0,SE,5.8,-,N/A,,Clear,130,2013-08-22 02:51:00
10:51 PM,79.0,68.0,69,30.03,10.0,East,5.8,-,N/A,,Clear,90,2013-08-22 03:51:00
11:51 PM,75.9,68.0,76,30.03,10.0,NNE,4.6,-,N/A,,Clear,20,2013-08-22 04:51:00